SCP
1 1 1 1 1 0 0 0 0 0 0 0 0 0 0 0 0 0 0 0 0 0 0 0 0 0 0 0 0 0 0 0 0 0 0 0 0 0 0 0 0 0 0
1 1 1 1 1 1 0 0 0 0 0 0 0 0 0 0 0 0 0 0 0 0 0 0 0 0 0 0 0 0 0 0 0 0 0 0 0 0 0 0 0 0 0
1 1 1 1 1 1 0 0 0 0 0 0 0 0 0 0 0 0 0 0 0 0 0 0 0 0 0 0 0 0 0 0 0 0 0 0 0 0 0 0 0 0 0
1 1 1 1 1 1 1 0 0 0 0 0 0 0 0 0 0 0 0 0 0 0 0 0 0 0 0 0 0 0 0 0 0 0 0 0 0 0 0 0 0 0 0
1 1 1 1 1 1 1 0 0 0 0 0 0 0 0 0 0 0 0 0 0 0 0 0 0 0 0 0 0 0 0 0 0 0 0 0 0 0 0 0 0 0 0
1 1 1 1 1 1 1 0 0 0 0 0 0 0 0 0 0 0 0 0 0 0 0 0 0 0 0 0 0 0 0 0 0 0 0 0 0 0 0 0 0 0 0
1 1 1 1 1 1 1 1 0 0 0 0 0 0 0 0 0 0 0 0 0 0 0 0 0 0 0 0 0 0 0 0 0 0 0 0 0 0 0 0 0 0 0
1 1 1 1 1 1 1 1 0 0 0 0 0 0 0 0 0 0 0 0 0 0 0 0 0 0 0 0 0 0 0 0 0 0 0 0 0 0 0 0 0 0 0
1 1 1 1 1 1 1 0 0 0 0 0 0 0 0 0 0 0 0 0 0 0 0 0 0 0 0 0 0 0 0 0 0 0 0 0 0 0 0 0 0 0 0
1 1 0 0 0 0 0 0 0 0 0 0 0 0 0 0 0 0 0 0 0 0 0 0 0 0 0 0 0 0 0 0 0 0 0 0 0 0 0 0 0 0 0
1 0 0 0 0 0 0 0 0 0 0 0 0 0 0 0 0 0 0 0 0 0 0 0 0 0 0 0 0 0 0 0 0 0 0 0 0 0 0 0 0 0 0
0 0 0 0 0 0 0 0 0 0 0 0 0 0 0 0 0 0 0 0 0 0 0 0 0 0 0 0 0 0 0 0 0 0 0 0 0 0 0 0 0 0 0
0 0 0 0 0 0 0 0 0 0 0 0 0 0 0 0 0 0 0 0 0 0 0 0 0 0 0 0 0 0 0 0 0 0 0 0 0 0 0 0 0 0 0
0 0 0 0 0 0 0 0 0 0 0 0 0 0 0 0 0 0 0 0 0 0 0 0 0 0 0 0 0 0 0 0 0 0 0 0 0 0 0 0 0 0 0
0 0 0 0 0 0 0 0 0 0 0 0 0 0 0 0 0 0 0 0 0 0 0 0 0 0 0 0 0 0 0 0 0 0 0 0 0 0 0 0 0 0 0
0 0 0 0 0 0 0 0 0 0 0 0 0 0 0 0 0 0 0 0 0 0 0 0 0 0 0 0 0 0 0 0 0 0 0 0 0 0 0 0 0 0 0
0 0 0 0 0 0 0 0 0 0 0 0 0 0 0 0 0 0 0 0 0 0 0 0 0 0 0 0 0 0 0 0 0 0 0 0 0 0 0 0 0 0 0
0 0 0 0 0 0 0 0 0 0 0 0 0 0 0 0 0 0 0 0 0 0 0 0 0 0 0 0 0 0 0 0 0 0 0 0 0 0 0 0 0 0 0
0 0 0 0 0 0 0 0 0 0 0 0 0 0 0 0 0 0 0 0 0 0 0 0 0 0 0 0 0 0 0 0 0 0 0 0 0 0 0 0 0 0 0
0 0 0 0 0 0 0 0 0 0 0 0 0 0 0 0 0 0 0 0 0 0 0 0 0 0 0 0 0 0 0 0 0 0 0 0 0 0 0 0 0 0 0
0 0 0 0 0 0 0 0 0 0 0 0 0 0 0 0 0 0 0 0 0 0 0 0 0 0 0 0 0 0 0 0 0 0 0 0 0 0 0 0 0 0 0
0 0 0 0 0 0 0 0 0 0 0 0 0 0 0 0 0 0 0 0 0 0 0 0 0 0 0 0 0 0 0 0 0 0 0 0 0 0 0 0 0 0 0
0 0 0 0 0 0 0 0 0 0 0 0 0 0 0 0 0 0 0 0 0 0 0 0 0 0 0 0 0 0 0 0 0 0 0 0 0 0 0 0 0 0 0
0 0 -0 0 0 0 0 0 0 0 0 0 0 0 0 0 0 0 0 0 0 0 0 0 0 0 0 0 0 0 0 0 0 0 0 -0 0 0 0 0 0 0 0
0 -0 0 0 0 0 0 0 0 0 0 0 0 0 0 0 0 0 0 0 0 0 0 0 0 0 0 0 0 0 0 0 0 0 0 0 0 0 0 0 0 0 0
0 0 0 0 0 0 0 0 0 0 0 0 0 0 0 0 0 0 0 0 0 0 0 0 0 0 0 0 0 0 0 0 0 0 0 0 0 0 0 0 0 0 0
Wind_Speed
8 10 11 10 9 8 8 8 7 7 7 7 7 7 6 6 6 7 7 6 6 7 7 7 7 7 7 7 7 7 7 7 6 6 6 5 5 6 6 6 5 5 7
10 11 11 10 9 8 8 8 7 6 6 6 6 6 6 5 5 6 6 6 6 6 7 7 7 6 6 6 6 6 5 5 4 3 3 2 3 4 5 5 5 4 6
10 11 10 10 9 8 8 7 7 6 6 6 6 6 5 5 5 5 5 5 6 6 6 6 6 6 5 5 5 4 4 3 1 1 2 1 3 4 4 4 4 4 4
9 9 10 10 10 9 8 7 7 6 6 6 5 5 5 5 5 4 5 5 5 5 5 5 5 5 4 4 4 3 2 2 3 4 2 1 2 6 5 4 3 3 3
8 8 10 10 10 9 8 7 7 6 6 6 5 4 5 5 5 5 5 5 5 5 5 4 4 4 3 3 3 2 2 3 5 5 2 1 2 5 5 3 2 2 2
8 8 9 10 10 9 9 8 7 7 6 6 5 4 4 5 5 5 5 5 5 4 4 4 4 3 3 2 2 1 3 5 6 4 1 2 2 4 4 3 2 2 2
7 7 8 10 10 9 9 7 7 7 6 6 5 4 4 5 5 5 5 4 4 3 3 3 3 3 3 2 2 2 4 6 5 3 1 2 3 4 3 2 1 1 1
7 7 6 9 9 9 8 7 7 7 6 6 5 5 5 4 5 5 4 4 3 3 3 2 2 2 2 2 2 3 5 6 5 3 1 2 3 3 2 2 2 2 2
6 7 5 5 7 8 8 7 6 6 6 5 5 5 5 4 4 5 4 4 4 3 2 2 1 1 1 2 2 4 5 7 5 2 1 2 3 2 1 1 2 2 3
5 5 5 4 5 5 6 6 6 5 5 5 5 4 4 3 4 4 4 4 3 2 2 1 1 1 2 2 3 4 6 6 4 2 1 2 3 1 1 2 3 3 3
4 4 4 4 3 4 5 5 5 5 4 4 4 4 3 2 2 3 4 3 2 1 0 1 2 2 3 4 5 6 5 2 3 0 2 3 3 1 1 2 3 3 3
4 3 3 3 3 3 3 3 2 3 3 2 2 2 1 2 2 3 4 3 1 1 2 3 4 4 3 2 3 4 2 3 1 1 2 4 2 1 1 2 3 3 3
4 3 3 3 3 3 2 2 1 1 1 1 2 1 1 2 1 1 1 1 1 1 1 2 2 2 1 1 1 1 2 2 1 1 2 3 2 1 2 2 3 3 3
4 4 3 3 3 2 2 2 1 1 1 1 1 2 1 1 1 1 1 1 1 0 1 1 1 2 1 1 1 1 1 1 0 1 2 3 2 0 1 2 3 4 4
4 4 3 3 3 3 3 1 2 1 1 2 2 2 2 1 2 2 1 1 1 1 1 2 2 2 1 2 2 2 2 2 1 1 2 2 2 0 1 2 3 3 3
4 3 3 4 3 3 3 2 2 1 2 2 2 2 2 2 2 2 2 1 1 1 1 1 2 2 1 1 2 2 2 2 1 1 1 1 2 1 1 2 3 3 4
4 3 4 3 4 4 3 3 2 1 2 2 2 2 3 2 2 2 2 1 1 1 2 2 3 2 2 1 2 2 2 2 1 1 1 0 1 1 0 2 3 3 4
4 4 4 4 4 3 3 2 2 2 2 2 2 2 3 2 2 2 2 2 2 2 2 2 2 2 2 2 2 2 1 1 1 1 1 1 1 1 1 1 2 3 4
4 4 4 4 4 3 3 3 3 3 3 2 2 2 2 3 3 2 2 2 2 2 2 2 2 2 2 3 2 2 1 1 1 1 1 1 1 1 1 1 2 3 3
4 4 4 4 3 3 2 2 2 3 2 2 2 2 2 2 3 2 2 2 2 1 2 2 2 2 2 2 3 2 2 2 1 0 0 1 1 1 1 1 1 1 2
4 3 3 3 2 2 2 1 2 1 1 1 1 2 2 2 2 2 2 2 2 2 2 2 2 2 2 2 2 2 3 2 0 1 1 1 1 1 1 1 1 1 1
4 3 3 3 2 2 2 1 1 2 1 2 1 1 1 1 2 2 2 2 2 2 2 2 2 1 2 2 1 1 2 2 2 1 0 0 0 1 1 1 1 1 1
4 3 3 2 2 2 2 2 2 2 1 1 1 1 0 1 2 2 2 1 2 2 1 2 2 2 1 2 1 1 1 1 2 2 1 0 1 1 1 0 1 1 1
4 4 3 3 2 2 2 2 2 2 2 1 1 1 1 1 1 1 1 1 1 1 1 1 2 1 1 1 1 1 1 1 1 2 2 1 1 1 1 1 1 1 1
4 4 3 3 2 2 2 2 2 1 1 1 1 1 1 1 1 1 0 0 0 0 1 1 1 1 1 1 1 1 2 2 1 1 3 3 2 2 1 1 0 1 1
4 3 3 3 2 2 2 2 2 2 2 2 1 0 0 1 1 1 1 1 0 0 0 1 1 1 1 1 1 1 1 1 1 1 3 3 3 3 2 1 1 1 0
Wind_Direction
116 126 129 124 119 118 114 109 108 111 112 111 107 100 97 97 93 88 90 89 87 89 88 84 81 78 75 72 72 72 71 69 68 69 68 67 69 69 64 55 55 69 74
120 127 129 125 122 118 117 113 111 109 107 109 108 103 98 100 100 94 91 89 85 84 82 81 78 76 74 71 70 73 72 73 72 68 70 72 84 86 70 58 57 64 71
118 127 131 125 122 121 118 117 117 116 111 109 110 107 103 99 104 105 99 97 90 83 79 78 76 74 74 71 69 68 65 63 48 334 291 217 141 117 94 73 65 67 69
117 128 131 128 127 123 121 121 120 118 114 108 108 112 107 103 102 104 97 97 93 86 80 77 74 72 71 66 62 58 42 4 318 300 276 187 115 110 99 80 61 58 57
113 118 127 130 128 124 123 122 121 120 116 110 103 107 106 101 100 97 90 90 87 80 75 73 70 67 66 58 51 39 5 328 317 294 282 79 87 112 100 78 54 49 42
111 112 126 130 130 128 126 123 121 119 116 111 104 97 101 96 91 88 84 85 82 78 75 70 63 57 52 45 32 358 329 321 312 285 300 89 94 109 103 78 43 24 22
107 108 126 131 134 132 129 126 121 117 114 108 107 103 98 99 95 88 83 83 83 79 73 66 60 49 45 32 9 333 317 313 296 292 9 77 90 97 96 68 21 354 354
105 108 119 130 132 130 127 125 120 117 114 108 105 102 96 96 97 93 84 79 76 79 71 62 52 40 33 15 352 337 323 311 308 310 42 85 96 96 84 45 355 335 322
106 111 112 123 132 128 121 120 120 117 114 113 110 106 97 94 103 100 87 76 67 66 63 53 41 20 356 332 315 314 308 302 300 296 350 83 93 90 50 5 343 330 326
105 112 119 120 132 131 121 119 118 118 122 128 133 134 135 125 129 118 95 79 67 58 59 47 3 324 306 287 281 288 291 296 283 282 35 85 92 81 351 327 321 317 318
99 104 115 117 116 124 131 132 130 135 143 146 152 167 170 165 145 131 112 103 83 47 334 267 278 275 272 261 259 268 283 275 278 46 73 91 98 66 353 326 323 312 311
105 98 106 112 112 118 138 139 153 151 152 170 147 168 188 99 79 98 130 141 150 287 290 263 270 272 261 250 253 257 268 280 293 60 83 91 91 59 341 323 319 312 313
112 91 77 88 104 110 117 129 118 110 128 109 95 115 100 89 84 86 143 166 211 244 302 287 270 257 263 254 250 252 278 297 346 54 97 101 88 31 338 323 323 313 307
106 98 87 83 87 82 79 99 104 94 101 79 56 46 58 71 74 59 65 47 39 14 342 325 287 288 311 319 303 285 299 297 295 108 123 115 108 37 321 319 322 312 308
109 101 98 90 88 82 73 73 88 83 82 77 50 37 49 67 69 54 38 37 45 11 1 329 319 320 326 325 319 324 313 304 314 73 112 126 117 43 314 317 318 318 312
113 106 98 93 90 86 77 66 67 79 82 81 68 39 40 57 55 54 36 19 32 8 345 331 333 335 315 309 312 311 312 318 352 47 105 134 125 99 338 328 326 323 321
121 111 108 106 92 84 79 68 67 74 85 76 63 47 38 48 52 61 41 16 14 3 1 355 342 345 322 321 322 323 333 332 347 17 58 123 140 163 316 315 322 329 328
110 107 101 100 92 87 82 75 71 61 66 67 60 52 37 31 39 61 53 23 357 12 15 356 349 356 343 342 335 326 331 327 325 356 23 52 61 57 9 348 344 344 339
103 107 99 88 87 87 85 78 71 61 58 62 56 52 42 34 26 58 57 15 2 24 19 357 7 9 353 340 320 312 306 302 296 358 32 56 53 54 46 33 25 7 360
105 103 103 96 91 95 96 88 84 78 64 69 65 46 37 39 31 45 52 21 6 30 26 10 1 5 352 324 319 319 292 262 234 107 63 58 50 51 55 52 8 351 8
107 105 109 105 99 99 101 107 108 108 123 102 91 69 33 47 38 48 39 23 20 41 23 10 12 2 350 347 354 328 305 261 163 141 103 68 41 41 44 56 31 7 2
125 125 123 116 116 109 101 103 119 110 134 129 112 88 31 57 54 51 39 23 26 31 26 20 17 359 348 13 7 331 328 329 338 300 111 129 36 15 34 41 29 13 27
142 154 148 140 137 132 123 107 92 87 73 91 117 109 311 82 85 63 33 24 22 30 37 22 16 24 345 338 15 18 355 301 317 299 279 223 20 350 327 7 28 353 359
154 149 144 144 142 141 132 130 138 144 155 171 172 153 177 142 115 90 40 26 26 21 19 5 29 7 9 315 326 353 301 288 294 306 305 310 324 304 311 339 355 345 347
140 141 144 143 146 142 141 147 145 141 143 120 101 135 153 155 146 137 142 49 11 15 28 6 352 348 345 298 304 316 319 314 274 264 287 302 307 280 275 276 279 320 333
130 135 145 144 159 157 159 170 167 148 132 121 105 113 185 175 163 175 179 194 230 230 42 294 294 301 279 279 285 276 269 285 301 290 286 293 289 283 279 248 239 260 299